Regional Weather Roundup
Issued by NWS

Home | Current Version | Previous Version | Graphics & Text | Print | Product List | Glossary On
Versions: 1 2 3 4 5 6 7 8 9 10 11 12 13 14 15 16 17 18 19 20 21 22 23 24 25 26 27 28 29 30 31 32 33 34 35 36 37 38 39 40 41 42 43 44 45 46 47 48 49 50
000
ASUS45 KCYS 010710
RWRWY

WYOMING REGIONAL WEATHER ROUNDUP
NATIONAL WEATHER SERVICE CHEYENNE WY
100 AM MDT WED APR 01 2015

NOTE:  "FAIR" INDICATES FEW OR NO CLOUDS BELOW 12,000 FEET
WITH NO SIGNIFICANT WEATHER AND/OR OBSTRUCTIONS TO VISIBILITY.

WYZ001-010800-
YELLOWSTONE NATIONAL PARK

CITY           SKY/WX    TMP DP  RH WIND       PRES   REMARKS
LK YELLOWSTONE   N/A     39  22  50 VRB7      29.83S WCI  34
W YELLOWSTONE  NOT AVBL

$$
WYZ002>013-054>058-071-098>099-010800-
NORTHERN WYOMING

CITY           SKY/WX    TMP DP  RH WIND       PRES   REMARKS
JACKSON        CLOUDY    45  28  53 S10       29.84R
CODY           FAIR      48  34  57 SW20G26   29.69F
GREYBULL       FAIR      58  23  26 NW15      29.63R
WORLAND        FAIR      49  26  41 S9        29.63R
SHERIDAN       FAIR      48  26  42 SE6       29.56F
BUFFALO        FAIR      58  19  22 N7        29.60F
GILLETTE       FAIR      62  20  19 SW16      29.56F
HULETT         FAIR      66  18  15 S14G20    29.55F
NEWCASTLE      FAIR      55  16  21 E5        29.61F

$$
WYZ014>020-022>026-101>103-010800-
CENTRAL WYOMING

CITY           SKY/WX    TMP DP  RH WIND       PRES   REMARKS
BIG PINEY      FAIR      35  23  61 NW5       29.83F WCI  31
PINEDALE       FAIR      39  28  65 N3        29.84S
DUBOIS         CLOUDY    43  27  52 W14       29.80R
LANDER         FAIR      56  23  27 NW8       29.70
RIVERTON       FAIR      55  25  31 W21       29.70S
CASPER         FAIR      49  21  33 SW14      29.69F
DOUGLAS        FAIR      57  19  22 S7        29.69F

$$
WYZ021-027>030-104>119-010800-
SOUTHERN WYOMING

CITY           SKY/WX    TMP DP  RH WIND       PRES   REMARKS
EVANSTON       MOCLDY    44  33  65 SW12      29.90S
KEMMERER       PTSUNNY   45  30  57 SW17      29.86F
FORT BRIDGER   CLOUDY    47  32  56 SW17G23   29.90F
ROCK SPRINGS   FAIR      46  23  40 W9        29.85S
DIXON          CLOUDY    58  16  19 S16G24    29.85S
RAWLINS        FAIR      49  17  28 SW6       29.80F
SARATOGA       FAIR      43  19  39 S8        29.84S
LARAMIE        FAIR      41  18  39 S6        29.85F
CHEYENNE       FAIR      45  21  38 W10       29.79F
TORRINGTON     FAIR      51  21  30 NE5       29.67F
PINE BLUFFS    FAIR      50  19  29 SW13      29.76S

$$



USA.gov is the U.S. government's official web portal to all federal, state and local government web resources and services.